カタログに戻る

ARIANE 44LP DEB

運用中HEO
NORAD 48352·DEBRIS·🇫🇷 France

打ち上げ Jan 15, 1991 から Guiana Space Centre

Loading…

次のパス (今後24時間)

TLE

最新Source: Space-Track

元期: Sep 13, 2026, 23:53 UTC

1 48352U 91003U   26256.99526057  .00000715  00000-0  14181-2 0  9999
2 48352   6.9200 137.3726 6111483 266.3380  26.5328  3.73260522156651

AllMySatでARIANE 44LP DEBをリアルタイム追跡

Download on the App Store